Weather Roundup
Issued by NWS

Home | Current Version | Previous Version | Graphics & Text | Print | Product List | Glossary Off
Versions: 1 2 3 4 5 6 7 8 9 10 11 12 13 14 15 16 17 18 19 20 21 22 23 24 25 26 27 28 29 30 31 32 33 34 35 36 37 38 39 40 41 42 43 44 45 46 47 48 49 50

000
NZUS93 KARX 041059
HRRWXR

CURRENT HOURLY OBSERVATIONS ACROSS
MUCH OF THE UPPER MISSISSIPPI VALLEY
NATIONAL WEATHER SERVICE LA CROSSE WI
600 AM CDT WED MAY 04 2016


...SOUTHEAST MINNESOTA...


CITY           SKY/WX    TMP DP  RH WIND       PRES   REMARKS
ROCHESTER      CLEAR     43  33  68 N13       29.90R
ROCHESTER/MAYO FAIR      45  32  61 N5        29.90R
WINONA         CLEAR     46  36  66 CALM      29.89R
AUSTIN         CLEAR     43  34  70 N7        29.90R
ALBERT LEA     CLEAR     45  34  65 N9        29.92R
DODGE CENTER   CLEAR     39  32  75 N6        29.91R WCI  35
PRESTON        CLEAR     41  33  73 N8        29.89R
OWATONNA       CLEAR     43  30  61 CALM      29.93R
FARIBAULT      NOT AVBL
$$

...ELSEWHERE IN MINNESOTA...


CITY           SKY/WX    TMP DP  RH WIND       PRES   REMARKS
MINNEAPOLIS    CLEAR     46  33  60 N7        29.94R
INTNL FALLS    CLEAR     34  30  85 NW7       29.99R WCI  28
DULUTH         CLEAR     39  31  72 N8        29.92R WCI  33
RED WING       CLEAR     41  34  75 CALM      29.91R
REDWOOD FALLS  CLEAR     45  32  60 NW8       29.99R
MANKATO        CLEAR     45  30  57 N7        29.95R
WORTHINGTON    CLEAR     41  34  76 N10       29.98R
FAIRMONT       CLEAR     45  30  57 N9        29.94R
$$

...SOUTHWEST WISCONSIN...


CITY           SKY/WX    TMP DP  RH WIND       PRES   REMARKS
LA CROSSE      CLEAR     44  37  76 N8        29.86R
PRAIRIE DU CHI CLEAR     47  40  76 N12G20    29.82R
LONE ROCK      NOT AVBL
PLATTEVILLE    CLEAR     45  44  97 N14       29.78R
FORT MC COY    CLEAR     41  38  90 N3        29.85R
MAUSTON-NEW LI CLOUDY    43  40  89 N6        29.80R
VIROQUA        FAIR      42  40  91 N12       29.82R
WIS DELLS      CLOUDY    43  40  86 N7        29.78R
$$

...ELSEWHERE IN WISCONSIN...


CITY           SKY/WX    TMP DP  RH WIND       PRES   REMARKS
MILWAUKEE      MOCLDY    46  40  79 N13G20    29.70R
MADISON        PTCLDY    43  40  89 N9        29.76R
GREEN BAY      LGT RAIN  42  36  79 N13       29.75R
EAU CLAIRE     NOT AVBL
BLACK RVR FLS  FAIR      42  36  80 N3        29.84S
MEDFORD        CLEAR     35  34  98 NW5       29.81S WCI  31
WAUSAU         CLOUDY    41  36  82 NW7       29.79S
WIS RAPIDS     CLEAR     40  35  83 N8        29.82R WCI  34
MARSHFIELD     CLEAR     38  34  85 NW8       29.81R WCI  32
RICE LAKE      CLEAR     41  32  70 NW5       29.91R
$$

...NORTHEAST IOWA...


CITY           SKY/WX    TMP DP  RH WIND       PRES   REMARKS
WATERLOO       CLEAR     47  39  74 N14       29.84R
DUBUQUE        CLEAR     45  43  93 N12       29.79R
DECORAH        PTCLDY    45  39  81 N10       29.84R
MASON CITY     CLEAR     45  35  68 N15       29.91R
CHARLES CITY   CLEAR     46  37  71 N15       29.87R
OELWEIN        CLEAR     46  43  87 N13       29.83R
$$

...ELSEWHERE IN IOWA...


CITY           SKY/WX    TMP DP  RH WIND       PRES   REMARKS
DES MOINES     CLEAR     51  35  54 N9        29.86R
IOWA CITY      CLEAR     49  45  86 N10       29.79R
FORT DODGE     CLEAR     46  32  57 N7        29.91R
MARSHALLTOWN   CLEAR     47  39  74 N14       29.84R
CEDAR RAPIDS   CLEAR     48  45  89 N12       29.79R
$$

...NORTHERN ILLINOIS...


CITY           SKY/WX    TMP DP  RH WIND       PRES   REMARKS
CHICAGO-OHARE  LGT RAIN  45  40  82 N21G32    29.67R
CHICAGO-MIDWAY LGT RAIN  48  44  86 N18       29.67R
MOLINE         CLEAR     48  45  89 N7        29.74R
ROCKFORD       CLOUDY    47  44  90 N13       29.75R
PEORIA         FOG       47  45  93 N5        29.71R VSB 3/4
$$

NOTE: "FAIR" INDICATES FEW OR NO CLOUDS BELOW 12,000 FEET WITH NO
SIGNIFICANT WEATHER AND/OR OBSTRUCTIONS TO VISIBILITY. WIND
SPEEDS ARE IN MILES-PER-HOUR.




USA.gov is the U.S. government's official web portal to all federal, state and local government web resources and services.